Location: Houston
(29.7630°N, 95.3630°W)
Time: 15:25:49
(UTC-05:00)

Daily predictions for brighter satellites

Satellite Brightness Start Highest point End
(mag) Time Altitude Azimuth Time Altitude Azimuth Time Altitude Azimuth
ATLAS CENTAUR Rocket 3.9 19:58:18 10° W 20:03:50 82° S 20:39:32 10° E
ATLAS CENTAUR Rocket 3.9 19:58:18 10° W 20:03:50 82° S 20:39:31 10° E
ATLAS CENTAUR Rocket 3.9 19:58:17 10° W 20:03:50 82° S 20:39:31 10° E
FengYun 1-2 T 4.3 20:42:52 10° SSE 20:48:21 87° E 20:53:54 10° NNW
CZ-2D R/B 3.4 20:48:05 10° SSE 20:51:53 56° ENE 20:55:40 10° N
GPS 2-12 Rocket1 4.4 20:48:31 10° SW 20:52:03 23° S 20:55:37 10° SE
ATLAS CENTAUR R/B 1.4 20:47:49 10° NNW 20:52:13 72° ENE 20:56:12 10° SSE
Meteor 2-1 Rocket 4.2 20:46:49 10° N 20:52:25 87° E 20:57:56 10° S
Cosmos 2360 4.3 20:47:31 10° NNW 20:53:17 87° ENE 20:59:00 10° SSE
Cosmos 968 Rocket 3.7 20:50:41 10° SSW 20:55:50 79° WNW 21:01:04 10° NNE
Delta 142 4.4 20:52:01 10° W 20:56:02 39° SSW 21:00:49 10° SE
Cosmos 1743 Rocket 3.6 21:01:31 10° S 21:05:58 79° E 21:10:26 10° N
Meteor 1-21 Rocket 4.2 21:01:12 10° S 21:06:40 62° E 21:12:06 10° NNE
Cosmos 2221 3.7 21:02:39 10° NNW 21:06:44 45° W 21:10:50 10° SSW
Cosmos 1500 Rocket 3.6 21:07:22 10° S 21:11:38 58° E 21:15:57 10° NNE
Cosmos 1437 4.2 21:14:41 14° SE 21:16:23 20° E 21:18:53 10° NE
Cosmos 2228 Rocket 3.1 21:14:48 10° N 21:19:18 84° E 21:23:50 10° S
S3M 4.0 21:13:14 10° N 21:19:18 67° E 21:25:25 10° SSE
Envisat 4.0 21:19:28 14° SE 21:22:57 29° ENE 21:27:18 10° NNE
ERS-1 Rocket 3.2 21:19:18 11° SSE 21:23:56 53° ENE 21:28:50 10° N
Cosmos 2219 3.5 21:19:25 10° S 21:24:50 44° ESE 21:30:16 10° NE
Resurs 01 Rocket 4.4 21:23:14 10° SW 21:25:50 15° W 21:28:26 10° WNW
Delta 2 Rocket 4.5 21:24:05 10° WNW 21:27:33 35° N 21:30:46 10° ENE
Cosmos 1441 Rocket 3.7 21:25:13 10° SSW 21:28:57 61° W 21:32:40 10° N
Sakura Rocket 4.1 21:27:51 10° SSW 21:31:07 20° SSE 21:31:50 19° SE
BREEZE M DEB (TANK) 1.5 21:31:30 10° NW 21:33:27 82° NE 21:35:24 22° ESE
deb Chang Zheng 4 3.5 21:30:05 10° NNE 21:34:25 80° E 21:38:46 10° S
Cosmos 2151 3.2 21:34:56 15° SSE 21:38:08 48° E 21:42:10 10° NNE
Cosmos 2322 4.4 21:34:40 10° N 21:39:57 37° ENE 21:43:02 22° ESE
Cosmos 2322 Rocket 2.5 21:35:01 10° NNW 21:40:34 64° WSW 21:45:46 12° S
NOSS 3-1 (C) 3.3 21:36:32 10° SSW 21:42:09 64° ESE 21:48:14 10° NE
USA 186 3.9 21:44:22 10° SW 21:45:39 14° W 21:46:57 10° WNW
Cosmos 1515 Rocket 3.6 21:41:46 10° N 21:46:11 81° W 21:49:43 15° S
Sich 1 4.4 21:48:46 22° E 21:48:57 22° E 21:52:19 10° NE
Cosmos 2360 Rocket 2.6 21:44:04 10° N 21:49:31 47° ENE 21:52:21 26° SE
Nimbus 7 Rocket 4.3 21:43:42 10° NNE 21:49:34 83° ESE 21:55:27 10° SSW
CZ-4 SHROUD 4.3 21:51:29 27° ENE 21:51:31 27° ENE 21:54:14 10° NNE
SL-16 R/B 2.8 21:46:37 10° NNW 21:52:08 54° WSW 21:56:58 13° S
Cosmos 1633 Rocket 4.4 21:52:39 22° E 21:52:39 22° E 21:56:01 10° NE
Cosmos 2058 3.3 21:52:03 32° SE 21:53:14 41° E 21:57:05 10° NNE
GPS 2-04 Rocket1 3.8 21:49:50 10° W 21:53:51 35° SSW 21:55:23 27° S
DELTA 2 R/B (1) 4.4 21:48:55 10° NW 21:54:12 44° NNE 21:58:07 17° E
Meteor 2-20 Rocket 4.5 21:49:56 10° S 21:56:06 85° W 22:02:16 10° N
Cosmos 1908 3.1 21:53:30 10° N 21:57:25 88° E 21:59:15 31° S
OAO 2 Rocket 3.4 21:52:18 10° WSW 21:57:38 86° NNW 22:02:59 10° ENE
Cosmos 1674 3.5 21:55:40 10° SSW 21:59:22 50° W 22:03:07 10° N
H-2A R/B 1.3 21:58:16 10° WSW 22:00:13 33° WSW 22:00:13 33° WSW
Cosmos 1151 Rocket 2.9 21:58:42 10° N 22:03:02 87° E 22:05:01 32° S
Cosmos 405 3.0 22:01:08 10° N 22:04:45 83° W 22:05:51 43° S
Cosmos 2266 Rocket 4.4 22:00:25 10° SSW 22:06:41 64° W 22:12:51 10° N
OE (NEXTSAT) 4.4 22:03:40 10° NW 22:07:14 68° NE 22:07:46 56° E
Cosmos 1805 Rocket 3.5 22:06:22 37° SSE 22:08:00 64° E 22:12:25 10° NNE
H-2A R/B 4.0 22:08:02 14° ENE 22:08:50 14° ENE 22:11:31 10° NE
OTV 4 1.2 22:07:32 10° WSW 22:09:38 42° WSW 22:09:38 42° WSW
Cosmos 2227 Rocket 3.3 22:11:30 24° E 22:11:30 24° E 22:15:15 10° NE
Meteor 1-11 4.3 22:07:49 28° SSE 22:10:51 60° E 22:16:30 10° NNE
YAOGAN 6 3.3 22:12:45 38° ENE 22:12:45 38° ENE 22:15:57 10° N
CZ-4 R/B 4.2 22:08:21 10° NNE 22:12:58 41° E 22:13:20 40° ESE
Tiangong 1 3.6 22:10:45 10° W 22:13:17 22° NNW 22:15:48 10° NNE
CZ-4B R/B 3.5 22:09:36 10° NNE 22:14:49 66° ESE 22:17:02 34° S
Cosmos 1680 Rocket 3.4 22:12:28 10° NNW 22:17:45 80° ENE 22:19:32 42° SSE
Cosmos 1300 3.5 22:14:43 10° NNE 22:17:52 37° ENE 22:17:52 37° ENE
Cosmos 2315 Rocket 3.9 22:13:11 10° N 22:19:22 71° E 22:21:58 36° SSE
SPOT 1/Viking Rocket 3.9 22:19:48 40° ESE 22:20:50 46° ENE 22:25:44 10° N
Cosmos 923 Rocket 4.2 22:17:09 10° NNW 22:22:18 67° WSW 22:24:27 35° S
Hubble Space Telescope 2.4 22:18:46 10° SW 22:20:32 22° SSW 22:20:32 22° SSW
Cosmos 1939 Rocket 4.0 22:21:29 25° SSW 22:23:11 39° W 22:26:52 10° NNW
Cosmos 1898 Rocket 3.3 22:21:55 31° S 22:24:25 79° ESE 22:29:37 10° NNE
H-2A R/B 3.2 22:22:16 23° SSW 22:24:39 41° W 22:28:57 10° NNW
Cosmos 858 Rocket 4.3 22:27:45 38° S 22:29:48 81° ESE 22:35:00 10° NNE
Cosmos 2333 Rocket 4.0 22:26:41 10° NNE 22:30:27 18° ENE 22:31:18 17° ENE
Cosmos 1244 Rocket 4.5 22:26:44 26° S 22:30:32 89° W 22:36:51 10° N
Cosmos 1666 Rocket 3.4 22:29:55 65° S 22:30:33 86° E 22:34:58 10° N
Cosmos 220 Rocket 4.3 22:31:40 50° ENE 22:31:40 50° ENE 22:35:19 10° NNE
Cosmos 2150 Rocket 4.0 22:28:34 25° SSW 22:31:49 85° WNW 22:37:18 10° NNE
PSLV R/B 4.3 22:33:00 43° WNW 22:33:00 43° WNW 22:35:27 10° NNW
Cosmos 1707 Rocket 3.5 22:28:37 10° N 22:32:57 66° E 22:32:57 66° E
SPOT 5 3.0 22:32:35 43° SSW 22:33:49 61° W 22:38:29 10° NNW
MetOp-A 4.1 22:33:18 46° S 22:34:56 82° WSW 22:40:18 10° NNW
Cosmos 2297 Rocket 3.5 22:39:29 25° ENE 22:39:29 25° ENE 22:42:33 10° NE
Centaur D-1A AC-32 4.3 22:33:31 10° SW 22:37:47 22° SSW 22:37:47 22° SSW
Meteor 2-11 Rocket 4.4 22:33:13 10° N 22:39:20 72° E 22:40:47 53° SSE
ARGOS 3.1 22:41:02 58° ESE 22:41:44 64° ENE 22:47:04 10° N
COSMOS 2428 2.7 22:36:52 10° NNW 22:42:31 65° ENE 22:43:18 58° ESE
NOSS 3-1 (A) 4.1 22:40:36 10° SW 22:46:12 51° WNW 22:52:18 10° NNE
SL-08 R/B 4.4 22:44:56 53° SSE 22:46:25 75° E 22:52:40 10° N
Cosmos 1745 Rocket 3.9 22:47:12 57° SE 22:48:10 65° E 22:54:17 10° NNE
Cosmos 2219 Rocket 3.0 22:45:24 10° N 22:50:28 34° ENE 22:50:35 34° ENE
Cosmos 1726 3.3 22:55:27 10° NNW 22:58:06 42° NNW 22:58:06 42° NNW
Cosmos 2237 4.2 22:58:22 10° NNW 23:04:05 74° WSW 23:04:31 70° SW
NOSS 0 Rocket 4.5 22:59:17 10° N 23:05:07 43° ENE 23:05:19 43° ENE
Landsat 7 4.2 23:05:56 55° NNE 23:05:56 55° NNE 23:09:51 10° N
ATLAS 2AS CENTAUR R/B 2.8 23:05:37 46° SSW 23:08:06 80° ESE 23:16:00 10° NNE
USA 32 4.0 23:04:38 10° N 23:09:42 81° NW 23:09:42 81° NW
Cosmos 292 Rocket 4.3 23:05:33 10° N 23:09:18 52° NNE 23:09:18 52° NNE
Cosmos 1386 Rocket 4.3 23:12:51 74° E 23:12:51 74° E 23:18:42 10° N
Cosmos 1271 Rocket 4.4 23:13:08 10° NNW 23:15:19 32° NNW 23:15:19 32° NNW
Cosmos 2082 3.8 23:19:48 70° W 23:20:07 72° WNW 23:25:51 10° NNE
Terra 2.6 23:22:18 45° NNE 23:22:18 45° NNE 23:25:42 10° N
Cosmos 2237 Rocket 3.0 23:16:47 10° N 23:21:31 41° NE 23:21:31 41° NE
Cosmos 2333 4.3 23:16:40 10° NNW 23:22:12 70° W 23:22:12 70° W
Meteor 2-10 4.2 23:18:42 10° N 23:24:07 78° NW 23:24:07 78° NW
ATLAS 3B R/B 4.1 23:24:43 10° N 23:30:08 24° NE 23:31:15 23° ENE
Lacrosse 4 Rocket 4.2 23:29:04 10° NNE 23:29:44 11° NE 23:29:44 11° NE
Cosmos 2360 Rocket 4.2 23:29:30 10° WNW 23:33:00 17° W 23:34:09 16° WSW
OAO 2 Rocket 4.3 23:37:39 10° W 23:42:20 47° NNW 23:42:20 47° NNW
H-2A R/B 2.9 23:48:40 49° WNW 23:48:40 49° WNW 23:52:58 10° NNW
COSMOS 2455 4.0 23:48:41 10° N 23:53:21 34° NE 23:53:21 34° NE
Cosmos 2227 Rocket 3.6 23:53:14 29° W 23:54:31 32° WNW 23:59:34 10° N
